Location: Unspecified
(0.0000°N, 0.0000°E)
Time: 17:16:30
(UTC+00:00)

Vanguard 1 - Visible Passes

Search period start: 18 June 2019 00:00
Search period end: 28 June 2019 00:00
Orbit: 654 x 3829 km, 34.2° (Epoch: 17 June)

Date Brightness Start Highest point End Pass type
(mag) Time Alt. Az. Time Alt. Az. Time Alt. Az.
18 Jun 12.6 02:10:46 51° NNW 02:10:46 51° NNW 02:23:23 10° NNE visible
18 Jun 13.3 04:28:08 10° WNW 04:34:21 13° NW 04:39:23 10° N visible
18 Jun 13.5 18:55:24 10° SSW 19:05:22 17° SSE 19:13:27 14° SE visible
18 Jun 13.4 21:17:05 10° SSW 21:26:11 29° S 21:26:11 29° S visible
19 Jun 13.2 00:17:13 32° NE 00:17:13 32° NE 00:23:26 10° NE visible
19 Jun 12.8 02:29:52 39° NW 02:31:06 40° NW 02:43:54 10° NNE visible
19 Jun 13.4 19:16:31 10° SSW 19:28:37 21° SSE 19:33:31 19° SE visible
19 Jun 13.4 21:38:03 10° SW 22:23:36 - ENE 21:46:16 29° SSW visible
20 Jun 13.0 00:36:14 42° NE 00:36:14 42° NE 00:44:37 10° NE visible
20 Jun 13.1 02:48:52 28° WNW 02:52:39 30° NW 03:04:14 10° NNE visible
20 Jun 13.3 19:37:23 10° SSW 19:51:33 26° SSE 19:53:42 25° SE visible
20 Jun 13.5 21:59:06 10° SW 22:42:30 - ENE 22:06:27 29° SSW visible
21 Jun 12.9 00:55:08 49° NNE 00:55:08 49° NNE 01:05:35 10° NE visible
21 Jun 13.3 03:07:46 19° WNW 03:14:26 23° NW 03:24:25 10° NNE visible
21 Jun 13.1 19:58:09 10° SSW 20:14:02 32° SSE 20:14:02 32° SSE visible
21 Jun 13.5 22:20:16 10° SW 23:01:17 17° ENE 23:03:55 10° ENE visible
22 Jun 12.9 01:13:54 48° NNW 01:13:54 48° NNW 01:26:23 10° NE visible
22 Jun 13.5 03:26:31 10° WNW 03:36:32 17° NNW 03:44:19 10° N visible
22 Jun 13.0 20:18:55 10° SSW 20:34:33 40° SSE 20:34:33 40° SSE visible
22 Jun 13.5 22:41:38 10° SW 23:19:55 27° NE 23:25:29 10° NE visible
23 Jun 13.1 01:32:30 41° NNW 01:32:30 41° NNW 01:47:02 10° NNE visible
23 Jun 13.6 03:53:40 10° NW 03:58:58 12° NNW 04:03:31 10° N visible
23 Jun 13.3 18:20:04 10° SSW 18:29:51 18° SSE 18:42:26 10° ESE visible
23 Jun 12.8 20:39:42 10° SW 20:55:19 48° SSE 20:55:19 48° SSE visible
23 Jun 13.3 23:03:15 10° WSW 23:38:21 37° NE 23:46:46 10° NE visible
24 Jun 13.3 01:50:56 32° NW 01:53:37 32° NW 02:07:35 10° NNE visible
24 Jun 13.2 18:40:29 10° SSW 18:52:24 24° SSE 19:03:32 16° ESE visible
24 Jun 12.7 21:00:36 10° SW 21:44:00 - ENE 21:16:24 57° S visible
24 Jun 13.1 23:25:13 10° WSW 23:56:33 46° NNE 00:07:51 10° NE visible
25 Jun 13.5 02:09:05 22° WNW 02:15:45 25° NNW 02:28:03 10° NNE visible
25 Jun 13.0 19:00:57 10° SSW 19:14:38 31° SE 19:25:01 22° ESE visible
25 Jun 12.7 21:21:39 10° SW 22:01:52 18° ENE 22:05:02 10° ENE visible
25 Jun 13.1 23:47:37 10° WSW 00:14:23 48° N 00:28:46 10° NE visible
26 Jun 13.7 02:26:53 12° WNW 02:38:13 19° NNW 02:48:26 10° NNE visible
26 Jun 12.9 19:21:28 10° SSW 19:36:34 39° SE 19:47:08 27° E visible
26 Jun 12.7 21:42:53 10° SW 22:19:09 31° NE 22:26:44 10° NE visible
27 Jun 13.2 00:10:35 10° W 00:31:51 42° NW 00:49:34 10° NNE visible
27 Jun 13.8 02:51:18 10° NW 03:00:59 15° NNW 03:08:47 10° N visible
27 Jun 12.7 19:42:07 10° SSW 19:58:18 49° SE 20:10:38 30° E visible
27 Jun 12.7 22:04:23 10° WSW 22:35:04 48° NE 22:48:08 10° NE visible
